User: anonymous   Login
Location: Orinda
(37.8771°N, 122.1797°W)
Time: 16:04:21
(UTC+00:00)
Language:

MSX - Orbit

View from above orbital plane
View from above orbital plane
View from above satellite
View from above satellite

Ground track
Ground track

The orbit data is extracted from the following two-line orbital elements,

1 23851U 96024A   19344.50342577  .00000162  00000-0  14305-3 0  9999
2 23851  98.7523 313.4138 0007396 341.9079  18.1821 13.98084977205639
Epoch (UTC): 10 December 2019 12:04:55
Eccentricity: 0.0007396
inclination: 98.7523°
perigee height: 895 km
apogee height: 906 km
right ascension of ascending node: 313.4138°
argument of perigee: 341.9079°
revolutions per day: 13.98084977
mean anomaly at epoch: 18.1821°
orbit number at epoch: 20563

The dashed part of the orbit path shows where the satellite is in the earth's shadow,  

DLR